OPS 4682 DEB, 51492

Orbit data source: Space-Track

OPS 4682 DEB, 51492 is space debris in LEO originally from a launch on Sat, 03 Apr 1965 UTC launched from the Air Force Western Test Range (AFWTR). Debris objects in space refer to the collection of defunct objects orbiting the Earth. Examples of debris include non-operational satellites, rocket bodies, and fragments generated from explosions, collisions, or faulty payload assembly.

Loading next visibility...
Identifier
51492, 1965-027GC
Orbit
LEO
Country
Flag of USUS
Related business
Manufacturer
Unknown
Mission
Spacecraft
Bus & Motor
Unknown
Mass
Unknown
Launch date (UTC)
1965-04-03 (61 years ago)
Launch vehicle
Unknown
Launch site
Air Force Western Test Range (AFWTR)
Object type
Payload
Rocket body
Debris
Shape & HBR
Unknown
Radar Cross Section
Medium (>0.1 m² and <1 m²)

Expand to show TLE details & history
Last TLE update: 3 days ago

TLE from 3 days ago
0 OPS 4682 DEB
1 51492U 65027GC  26205.96280650  .00000983  00000-0  32423-2 0  9998
2 51492  90.2560  18.6081 0029668 182.9279 333.0045 12.99876595768682
Epoch: 2026-07-24T23:06Z
TLE epoch observation values (Epoch: 2026-07-24T23:06:26.481Z)
Latitude
24.244°
Longitude
-90.56944°
Altitude
1,245.311 km
Speed
7.244 km/s
True Right ascension
13h 14m 53s
True Declination
24° 07' 25"
Sunlit
Object was in daylight at epoch
Visualization orbit readout
Latitude
Unknown
Longitude
Unknown
Altitude
Unknown
Speed
Unknown
Apparent Right ascension
Unknown
Apparent Declination
Unknown
Sunlit
N/A
Visualization observer readout
Local Sidereal Time
09:15:09
Azimuth
Unknown
Elevation
Unknown
Doppler factor
Unknown
Orbital elements
Apogee altitude
1,282.357 km
Perigee altitude
1,237.037 km
Semi-major axis
7,637.834 km
Eccentricity
0.00297
Inclination
90.256°
RAAN
18.6081°
Arg. of periapsis
182.9279°
True anomaly
332.84967°
Mean anomaly
333.0045°
Eccentric anomaly
332.92714°
Mean motion
3.25153 °/min
Orbital period
110.72 mins
BSTAR
0.0032423
Loading maneuver chart data...
Computing Atmospheric mass density...
Loading historical data...
Loading historical data...
Loading historical data...
Loading historical data...
Loading historical data...
Loading historical data...
Loading historical data...

Documentation

Showing up to 5 results
|